{"data":{"norad_id":58711,"epoch":"2026-05-25T05:06:04.709664Z","epoch_age_seconds":66877,"freshness":"FRESH","line1":"1 58711U 24002G   26145.21255451  .00000529  00000+0  26796-4 0  9992","line2":"2 58711  53.1619 234.3383 0000711 106.3551 253.7530 15.34384444133737","mean_motion":15.34384444,"eccentricity":7.11e-5,"inclination_deg":53.1619,"raan_deg":234.3383,"arg_perigee_deg":106.3551,"mean_anomaly_deg":253.753,"bstar":2.6796e-5,"rev_number":13373,"period_min":93.848709535014,"perigee_km":462.26308927954,"apogee_km":463.23586333647,"semimajor_km":6840.886476308,"source":"CELESTRAK","updated_at":"2026-05-25T13:38:18.715870Z"}}